Time,TemperatureF,DewpointF,PressureIn,WindDirection,WindDirectionDegrees,WindSpeedMPH,WindSpeedGustMPH,Humidity,HourlyPrecipIn,Conditions,Clouds,dailyrainin,SoftwareType,DateUTC
2013-10-26 15:49:00,52.3,48.6,30.07,WSW,250,0.0,0.0,87,0.00,,---,0.00,VWS V14.01,2013-10-26 22:49:00,
2013-10-26 15:51:00,52.3,48.6,30.07,WSW,250,0.0,0.0,87,0.00,,---,0.00,VWS V14.01,2013-10-26 22:51:00,
2013-10-26 15:56:00,52.3,48.6,30.07,WSW,250,0.0,0.0,87,0.00,,---,0.00,VWS V14.01,2013-10-26 22:56:00,
2013-10-26 16:01:00,52.3,48.6,30.07,WSW,250,0.0,0.0,87,0.00,,---,0.00,VWS V14.01,2013-10-26 23:01:00,
2013-10-26 16:06:00,52.3,48.6,30.07,WSW,250,0.0,0.0,87,0.00,,---,0.00,VWS V14.01,2013-10-26 23:06:00,
2013-10-26 16:12:00,52.2,48.4,30.07,WSW,250,0.0,0.0,87,0.00,,---,0.00,VWS V14.01,2013-10-26 23:12:00,
2013-10-26 16:17:00,52.2,48.1,30.07,WSW,250,0.0,0.0,86,0.00,,---,0.00,VWS V14.01,2013-10-26 23:17:00,
2013-10-26 16:22:00,52.2,48.1,30.07,WSW,250,0.0,0.0,86,0.00,,---,0.00,VWS V14.01,2013-10-26 23:22:00,
2013-10-26 16:27:00,52.0,47.9,30.07,WSW,250,0.0,0.0,86,0.00,,---,0.00,VWS V14.01,2013-10-26 23:27:00,
2013-10-26 16:32:00,51.8,47.8,30.04,WSW,250,0.0,0.0,86,0.00,,---,0.00,VWS V14.01,2013-10-26 23:32:00,
2013-10-26 16:37:00,51.8,47.8,30.04,WSW,250,0.0,0.0,86,0.00,,---,0.00,VWS V14.01,2013-10-26 23:37:00,
2013-10-26 16:42:00,51.6,47.6,30.04,WSW,250,0.0,0.0,86,0.00,,---,0.00,VWS V14.01,2013-10-26 23:42:00,
2013-10-26 16:47:00,51.6,47.6,30.04,WSW,250,0.0,0.0,86,0.00,,---,0.00,VWS V14.01,2013-10-26 23:47:00,
2013-10-26 16:52:00,51.4,47.4,30.04,WSW,250,0.0,0.0,86,0.00,,---,0.00,VWS V14.01,2013-10-26 23:52:00,
2013-10-26 16:57:00,51.3,47.2,30.04,WSW,250,0.0,0.0,86,0.00,,---,0.00,VWS V14.01,2013-10-26 23:57:00,
2013-10-26 17:02:00,51.1,47.0,30.04,WSW,250,0.0,0.0,86,0.00,,---,0.00,VWS V14.01,2013-10-27 00:02:00,
2013-10-26 17:07:00,50.7,46.7,30.04,WSW,250,0.0,0.0,86,0.00,,---,0.00,VWS V14.01,2013-10-27 00:07:00,
2013-10-26 17:12:00,50.5,46.5,30.04,WSW,250,0.0,0.0,86,0.00,,---,0.00,VWS V14.01,2013-10-27 00:12:00,
2013-10-26 17:17:00,50.4,46.3,30.04,WSW,250,0.0,0.0,86,0.00,,---,0.00,VWS V14.01,2013-10-27 00:17:00,
2013-10-26 17:22:00,50.2,46.2,30.04,WSW,250,0.0,0.0,86,0.00,,---,0.00,VWS V14.01,2013-10-27 00:22:00,
2013-10-26 17:27:00,50.0,46.0,30.04,WSW,250,0.0,0.0,86,0.00,,---,0.00,VWS V14.01,2013-10-27 00:27:00,
2013-10-26 17:32:00,49.6,45.9,30.04,WSW,250,0.0,0.0,87,0.00,,---,0.00,VWS V14.01,2013-10-27 00:32:00,
2013-10-26 17:37:00,49.5,45.8,30.04,WSW,250,0.0,0.0,87,0.00,,---,0.00,VWS V14.01,2013-10-27 00:37:00,
2013-10-26 17:42:00,49.1,45.4,30.04,WSW,250,0.0,0.0,87,0.00,,---,0.00,VWS V14.01,2013-10-27 00:42:00,
2013-10-26 17:47:00,48.7,45.0,30.04,WSW,250,0.0,0.0,87,0.00,,---,0.00,VWS V14.01,2013-10-27 00:47:00,
2013-10-26 17:52:00,48.6,44.9,30.04,WSW,250,0.0,0.0,87,0.00,,---,0.00,VWS V14.01,2013-10-27 00:52:00,
2013-10-26 17:58:00,48.4,44.7,30.04,WSW,250,0.0,0.0,87,0.00,,---,0.00,VWS V14.01,2013-10-27 00:58:00,
2013-10-26 18:03:00,48.0,44.3,30.04,WSW,250,0.0,0.0,87,0.00,,---,0.00,VWS V14.01,2013-10-27 01:03:00,
2013-10-26 18:08:00,47.7,44.0,30.04,WSW,250,0.0,0.0,87,0.00,,---,0.00,VWS V14.01,2013-10-27 01:08:00,
2013-10-26 18:13:00,47.5,44.1,30.04,WSW,250,0.0,0.0,88,0.00,,---,0.00,VWS V14.01,2013-10-27 01:13:00,
2013-10-26 18:18:00,47.3,43.9,30.04,WSW,250,0.0,0.0,88,0.00,,---,0.00,VWS V14.01,2013-10-27 01:18:00,
2013-10-26 18:23:00,47.1,43.8,30.04,WSW,250,0.0,0.0,88,0.00,,---,0.00,VWS V14.01,2013-10-27 01:23:00,
2013-10-26 18:28:00,46.8,43.4,30.04,WSW,250,0.0,0.0,88,0.00,,---,0.00,VWS V14.01,2013-10-27 01:28:00,
2013-10-26 18:33:00,46.6,43.2,30.04,WSW,250,0.0,0.0,88,0.00,,---,0.00,VWS V14.01,2013-10-27 01:33:00,
2013-10-26 18:38:00,46.2,42.9,30.04,WSW,250,0.0,0.0,88,0.00,,---,0.00,VWS V14.01,2013-10-27 01:38:00,
2013-10-26 18:43:00,46.0,42.7,30.04,WSW,250,0.0,0.0,88,0.00,,---,0.00,VWS V14.01,2013-10-27 01:43:00,
2013-10-26 18:48:00,45.9,42.5,30.04,WSW,250,0.0,0.0,88,0.00,,---,0.00,VWS V14.01,2013-10-27 01:48:00,
2013-10-26 18:53:00,45.5,42.5,30.04,WSW,250,0.0,0.0,89,0.00,,---,0.00,VWS V14.01,2013-10-27 01:53:00,
2013-10-26 18:58:00,45.5,42.5,30.04,WSW,250,0.0,0.0,89,0.00,,---,0.00,VWS V14.01,2013-10-27 01:58:00,
2013-10-26 19:03:00,45.1,42.1,30.04,WSW,250,0.0,0.0,89,0.00,,---,0.00,VWS V14.01,2013-10-27 02:03:00,
2013-10-26 19:08:00,44.8,41.7,30.04,WSW,250,0.0,0.0,89,0.00,,---,0.00,VWS V14.01,2013-10-27 02:08:00,
2013-10-26 19:13:00,44.6,41.6,30.04,WSW,250,0.0,0.0,89,0.00,,---,0.00,VWS V14.01,2013-10-27 02:13:00,
2013-10-26 19:18:00,44.4,41.7,30.04,WSW,250,0.0,0.0,90,0.00,,---,0.00,VWS V14.01,2013-10-27 02:18:00,
2013-10-26 19:23:00,44.2,41.5,30.04,WSW,250,0.0,0.0,90,0.00,,---,0.00,VWS V14.01,2013-10-27 02:23:00,
2013-10-26 19:28:00,44.1,41.3,30.04,WSW,250,0.0,0.0,90,0.00,,---,0.00,VWS V14.01,2013-10-27 02:28:00,
2013-10-26 19:33:00,43.9,41.1,30.04,WSW,250,0.0,0.0,90,0.00,,---,0.00,VWS V14.01,2013-10-27 02:33:00,
2013-10-26 19:38:00,43.7,41.0,30.04,WSW,250,0.0,0.0,90,0.00,,---,0.00,VWS V14.01,2013-10-27 02:38:00,
2013-10-26 19:44:00,43.5,40.8,30.04,WSW,250,0.0,0.0,90,0.00,,---,0.00,VWS V14.01,2013-10-27 02:44:00,
2013-10-26 19:49:00,43.3,40.6,30.04,WSW,250,0.0,0.0,90,0.00,,---,0.00,VWS V14.01,2013-10-27 02:49:00,
2013-10-26 19:54:00,43.2,40.4,30.04,WSW,250,0.0,0.0,90,0.00,,---,0.00,VWS V14.01,2013-10-27 02:54:00,
2013-10-26 19:59:00,43.0,40.2,30.04,WSW,250,0.0,0.0,90,0.00,,---,0.00,VWS V14.01,2013-10-27 02:59:00,
2013-10-26 20:04:00,43.0,40.2,30.01,WSW,250,0.0,0.0,90,0.00,,---,0.00,VWS V14.01,2013-10-27 03:04:00,
2013-10-26 20:09:00,42.8,40.1,30.01,WSW,250,0.0,0.0,90,0.00,,---,0.00,VWS V14.01,2013-10-27 03:09:00,
2013-10-26 20:14:00,42.6,40.2,30.01,WSW,250,0.0,0.0,91,0.00,,---,0.00,VWS V14.01,2013-10-27 03:14:00,
2013-10-26 20:19:00,42.4,40.0,30.01,WSW,250,0.0,0.0,91,0.00,,---,0.00,VWS V14.01,2013-10-27 03:19:00,
2013-10-26 20:24:00,42.3,39.8,30.01,WSW,250,0.0,0.0,91,0.00,,---,0.00,VWS V14.01,2013-10-27 03:24:00,
2013-10-26 20:29:00,42.3,39.8,30.01,WSW,250,0.0,0.0,91,0.00,,---,0.00,VWS V14.01,2013-10-27 03:29:00,
2013-10-26 20:34:00,42.1,39.7,30.01,WSW,250,0.0,0.0,91,0.00,,---,0.00,VWS V14.01,2013-10-27 03:34:00,
2013-10-26 20:39:00,41.9,39.5,30.01,WSW,250,0.0,0.0,91,0.00,,---,0.00,VWS V14.01,2013-10-27 03:39:00,
2013-10-26 20:44:00,41.7,39.3,30.01,WSW,250,0.0,0.0,91,0.00,,---,0.00,VWS V14.01,2013-10-27 03:44:00,
2013-10-26 20:49:00,41.7,39.3,29.98,WSW,250,0.0,0.0,91,0.00,,---,0.00,VWS V14.01,2013-10-27 03:49:00,
2013-10-26 20:54:00,41.5,39.1,29.98,WSW,250,0.0,0.0,91,0.00,,---,0.00,VWS V14.01,2013-10-27 03:54:00,
2013-10-26 20:59:00,41.4,38.9,29.98,WSW,250,0.0,0.0,91,0.00,,---,0.00,VWS V14.01,2013-10-27 03:59:00,
2013-10-26 21:01:00,41.4,38.9,30.01,WSW,250,0.0,0.0,91,0.00,,---,0.00,VWS V14.01,2013-10-27 04:01:00,
2013-10-26 21:04:00,41.4,38.9,30.01,WSW,250,0.0,0.0,91,0.00,,---,0.00,VWS V14.01,2013-10-27 04:04:00,
2013-10-26 21:09:00,41.2,38.8,30.01,WSW,250,0.0,0.0,91,0.00,,---,0.00,VWS V14.01,2013-10-27 04:09:00,
2013-10-26 21:14:00,41.0,38.6,30.01,WSW,250,0.0,0.0,91,0.00,,---,0.00,VWS V14.01,2013-10-27 04:14:00,
2013-10-26 21:19:00,40.6,38.5,30.01,WSW,250,0.0,0.0,92,0.00,,---,0.00,VWS V14.01,2013-10-27 04:19:00,
2013-10-26 21:24:00,40.6,38.5,30.01,WSW,250,0.0,0.0,92,0.00,,---,0.00,VWS V14.01,2013-10-27 04:24:00,
2013-10-26 21:29:00,40.6,38.5,30.01,WSW,250,0.0,0.0,92,0.00,,---,0.00,VWS V14.01,2013-10-27 04:29:00,
2013-10-26 21:34:00,40.6,38.5,30.01,West,266,0.0,0.0,92,0.00,,---,0.00,VWS V14.01,2013-10-27 04:34:00,
2013-10-26 21:39:00,40.6,38.5,30.01,West,266,0.0,0.0,92,0.00,,---,0.00,VWS V14.01,2013-10-27 04:39:00,
2013-10-26 21:44:00,40.6,38.5,30.01,West,266,0.0,0.0,92,0.00,,---,0.00,VWS V14.01,2013-10-27 04:44:00,
2013-10-26 21:49:00,40.6,38.5,30.01,West,266,0.0,0.0,92,0.00,,---,0.00,VWS V14.01,2013-10-27 04:49:00,
2013-10-26 21:55:00,40.5,38.3,30.01,West,266,0.0,0.0,92,0.00,,---,0.00,VWS V14.01,2013-10-27 04:55:00,
2013-10-26 22:00:00,40.5,38.3,30.01,West,266,0.0,0.0,92,0.00,,---,0.00,VWS V14.01,2013-10-27 05:00:00,
2013-10-26 22:05:00,40.3,38.2,29.98,West,266,0.0,0.0,92,0.00,,---,0.00,VWS V14.01,2013-10-27 05:05:00,
2013-10-26 22:10:00,40.3,38.2,29.98,West,266,0.0,0.0,92,0.00,,---,0.00,VWS V14.01,2013-10-27 05:10:00,
2013-10-26 22:15:00,40.1,38.0,29.98,West,266,0.0,0.0,92,0.00,,---,0.00,VWS V14.01,2013-10-27 05:15:00,
2013-10-26 22:20:00,39.9,37.8,29.98,West,266,0.0,0.0,92,0.00,,---,0.00,VWS V14.01,2013-10-27 05:20:00,
2013-10-26 22:25:00,39.7,37.6,29.98,West,266,0.0,0.0,92,0.00,,---,0.00,VWS V14.01,2013-10-27 05:25:00,
2013-10-26 22:30:00,39.6,37.4,29.98,West,277,0.0,0.0,92,0.00,,---,0.00,VWS V14.01,2013-10-27 05:30:00,
2013-10-26 22:35:00,39.6,37.4,29.98,WNW,286,0.0,0.0,92,0.00,,---,0.00,VWS V14.01,2013-10-27 05:35:00,
2013-10-26 22:40:00,39.4,37.2,29.98,WNW,286,0.0,0.0,92,0.00,,---,0.00,VWS V14.01,2013-10-27 05:40:00,
2013-10-26 22:45:00,39.4,37.2,29.98,WNW,286,0.0,0.0,92,0.00,,---,0.00,VWS V14.01,2013-10-27 05:45:00,
2013-10-26 22:50:00,39.4,37.2,29.98,WNW,286,0.0,0.0,92,0.00,,---,0.00,VWS V14.01,2013-10-27 05:50:00,
2013-10-26 22:55:00,39.6,37.4,29.98,WNW,287,0.0,0.0,92,0.00,,---,0.00,VWS V14.01,2013-10-27 05:55:00,
2013-10-26 23:00:00,39.6,37.4,29.98,WNW,287,0.0,0.0,92,0.00,,---,0.00,VWS V14.01,2013-10-27 06:00:00,
2013-10-26 23:05:00,39.7,37.6,29.98,WNW,287,0.0,0.0,92,0.00,,---,0.00,VWS V14.01,2013-10-27 06:05:00,
2013-10-26 23:10:00,39.7,37.6,29.98,WNW,287,0.0,0.0,92,0.00,,---,0.00,VWS V14.01,2013-10-27 06:10:00,
2013-10-26 23:15:00,39.7,37.6,29.95,WNW,288,0.0,0.0,92,0.00,,---,0.00,VWS V14.01,2013-10-27 06:15:00,
2013-10-26 23:21:00,39.7,37.6,29.95,WNW,288,0.0,0.0,92,0.00,,---,0.00,VWS V14.01,2013-10-27 06:21:00,
2013-10-26 23:26:00,39.7,37.9,29.95,WNW,288,0.0,0.0,93,0.00,,---,0.00,VWS V14.01,2013-10-27 06:26:00,
2013-10-26 23:31:00,39.7,37.9,29.95,WNW,288,0.0,0.0,93,0.00,,---,0.00,VWS V14.01,2013-10-27 06:31:00,
2013-10-26 23:36:00,39.7,37.9,29.95,WNW,288,0.0,0.0,93,0.00,,---,0.00,VWS V14.01,2013-10-27 06:36:00,
2013-10-26 23:41:00,39.7,37.9,29.95,WNW,288,0.0,0.0,93,0.00,,---,0.00,VWS V14.01,2013-10-27 06:41:00,
2013-10-26 23:46:00,39.7,37.9,29.95,WNW,288,0.0,0.0,93,0.00,,---,0.00,VWS V14.01,2013-10-27 06:46:00,
2013-10-26 23:51:00,39.7,37.9,29.95,WNW,288,0.0,0.0,93,0.00,,---,0.00,VWS V14.01,2013-10-27 06:51:00,
2013-10-26 23:56:00,39.7,37.9,29.95,WNW,288,0.0,0.0,93,0.00,,---,0.00,VWS V14.01,2013-10-27 06:56:00,